KA1WBH Weather Reports


Display with metric or nautical units.
time (UTC)temp
F
wind
direction
speed
MPH
gust
MPH
rain 1hr
in
rain 24hr
in
rain mn
in
humidity
%
barometer
mb
20180618211058 69 231 3.0 20.0 0.00 0.00 0.00 92 1010.1
20180618210058 70 245 0.0 22.0 0.00 0.00 0.00 92 1010.4
20180618205058 70 217 10.0 23.0 0.00 0.00 0.00 91 1010.5
20180618204058 70 202 5.0 28.0 0.00 0.00 0.00 91 1011.0
20180618203058 70 219 0.0 24.0 0.00 0.00 0.00 92 1011.2
20180618202058 70 232 9.0 23.0 0.00 0.00 0.00 91 1011.3
20180618201058 70 237 2.0 24.0 0.00 0.00 0.00 90 1011.3
20180618200058 70 267 10.0 24.0 0.00 0.00 0.00 90 1011.2
20180618195058 70 259 2.0 27.0 0.00 0.00 0.00 90 1011.5
20180618194058 70 239 4.0 22.0 0.00 0.00 0.00 91 1011.5
20180618193058 69 227 9.0 25.0 0.00 0.00 0.00 92 1011.7
20180618192058 68 236 1.0 23.0 0.00 0.00 0.00 93 1012.0
20180618191058 68 253 14.0 24.0 0.00 0.00 0.00 92 1012.1
20180618190058 68 248 20.0 27.0 0.00 0.00 0.00 92 1012.1
20180618185058 68 225 2.0 20.0 0.00 0.00 0.00 91 1012.1
20180618184058 68 209 14.0 24.0 0.00 0.00 0.00 91 1012.3
20180618183058 69 223 11.0 21.0 0.00 0.00 0.00 90 1012.6
20180618182059 69 227 3.0 20.0 0.00 0.00 0.00 90 1012.8
20180618181058 69 216 1.0 19.0 0.00 0.00 0.00 91 1013.0
20180618180058 69 202 2.0 27.0 0.00 0.00 0.00 90 1013.3
20180618175058 69 254 19.0 20.0 0.00 0.00 0.00 90 1013.4
20180618174058 69 205 0.0 18.0 0.00 0.00 0.00 90 1013.5
20180618173058 69 248 10.0 12.0 0.00 0.00 0.00 89 1013.5
20180618172058 70 214 2.0 19.0 0.00 0.00 0.00 89 1013.7
20180618171058 70 207 15.0 19.0 0.00 0.00 0.00 88 1013.9
20180618170058 70 231 0.0 18.0 0.00 0.00 0.00 89 1014.1
20180618165058 69 204 7.0 20.0 0.00 0.00 0.00 89 1014.2
20180618164058 69 243 3.0 19.0 0.00 0.00 0.00 89 1014.2
20180618163058 69 245 17.0 19.0 0.00 0.00 0.00 88 1014.4
20180618162058 69 201 13.0 22.0 0.00 0.00 0.00 87 1014.3
20180618161058 70 197 4.0 22.0 0.00 0.00 0.00 87 1014.3
20180618160058 70 221 5.0 19.0 0.00 0.00 0.00 86 1014.4
20180618155058 69 214 5.0 24.0 0.00 0.00 0.00 86 1014.5
20180618154058 69 216 4.0 21.0 0.00 0.00 0.00 86 1014.5
20180618153058 70 227 3.0 23.0 0.00 0.00 0.00 86 1014.6
20180618152058 70 227 6.0 21.0 0.00 0.00 0.00 84 1014.8
20180618151058 70 268 1.0 17.0 0.00 0.00 0.00 85 1015.0
20180618150058 70 240 5.0 19.0 0.00 0.00 0.00 83 1014.9
20180618145058 70 246 5.0 24.0 0.00 0.00 0.00 85 1015.1
20180618144058 70 248 13.0 21.0 0.00 0.00 0.00 84 1014.9
20180618143058 70 214 4.0 21.0 0.00 0.00 0.00 83 1014.9
20180618142058 70 232 11.0 23.0 0.00 0.00 0.00 83 1015.1
20180618141058 70 251 10.0 23.0 0.00 0.00 0.00 83 1015.3
20180618140058 70 235 26.0 29.0 0.00 0.00 0.00 84 1015.4
20180618135058 69 220 10.0 27.0 0.00 0.00 0.00 87 1015.4
20180618134058 69 250 4.0 25.0 0.00 0.00 0.00 88 1015.4
20180618133058 69 225 0.0 29.0 0.00 0.00 0.00 89 1015.6
20180618132058 69 238 11.0 23.0 0.00 0.00 0.00 89 1015.6
20180618131058 69 227 12.0 21.0 0.00 0.00 0.00 90 1015.7
20180618130058 68 224 13.0 23.0 0.00 0.00 0.00 90 1015.7
20180618125058 68 218 10.0 22.0 0.00 0.00 0.00 91 1015.6
20180618124058 68 202 5.0 22.0 0.00 0.00 0.00 91 1015.7
20180618123057 68 240 14.0 22.0 0.00 0.00 0.00 92 1015.8
20180618122058 68 218 2.0 19.0 0.00 0.00 0.00 92 1015.9
20180618121058 67 237 8.0 21.0 0.00 0.00 0.00 93 1016.0
20180618120058 67 252 6.0 19.0 0.00 0.00 0.00 94 1015.9
20180618115058 67 227 0.0 18.0 0.00 0.00 0.00 95 1016.1
20180618114058 67 229 12.0 19.0 0.00 0.00 0.00 95 1016.3
20180618113057 66 228 3.0 16.0 0.00 0.00 0.00 95 1016.4
20180618112058 66 218 0.0 15.0 0.00 0.00 0.00 96 1016.4
20180618111058 66 251 4.0 16.0 0.00 0.00 0.00 96 1016.5
20180618110057 66 231 5.0 17.0 0.00 0.00 0.00 96 1016.6
20180618105057 66 252 11.0 16.0 0.00 0.00 0.00 96 1016.7
20180618104057 66 264 1.0 12.0 0.00 0.00 0.00 97 1016.8
20180618103058 65 245 0.0 14.0 0.00 0.00 0.00 97 1016.9
20180618102058 65 235 9.0 16.0 0.00 0.00 0.00 97 1016.9
20180618101058 65 235 5.0 15.0 0.00 0.00 0.00 97 1016.8
20180618100057 65 235 4.0 13.0 0.00 0.00 0.00 97 1016.6
20180618095058 65 214 5.0 14.0 0.00 0.00 0.00 97 1016.7
20180618093058 65 231 2.0 14.0 0.00 0.00 0.00 97 1017.1
20180618092057 65 234 0.0 11.0 0.00 0.00 0.00 97 1017.2
20180618091057 65 250 0.0 11.0 0.00 0.00 0.00 97 1017.2
20180618090057 65 212 1.0 12.0 0.00 0.00 0.00 97 1017.2
20180618085057 65 214 0.0 12.0 0.00 0.00 0.00 97 1017.1
20180618084057 65 231 4.0 14.0 0.00 0.00 0.00 97 1017.1
20180618083058 65 235 0.0 15.0 0.00 0.00 0.00 97 1016.9
20180618082058 65 223 3.0 15.0 0.00 0.00 0.00 97 1016.9
20180618081057 65 218 6.0 11.0 0.00 0.00 0.00 97 1017.0
20180618080058 65 234 6.0 16.0 0.00 0.00 0.00 96 1017.2
20180618075057 65 248 2.0 13.0 0.00 0.00 0.00 96 1017.2
20180618074057 65 240 6.0 13.0 0.00 0.00 0.00 96 1017.4
20180618073057 65 220 0.0 9.0 0.00 0.00 0.00 96 1017.4
20180618072057 65 234 6.0 9.0 0.00 0.00 0.00 96 1017.5
20180618071057 65 235 8.0 12.0 0.00 0.00 0.00 96 1017.6
20180618070057 65 240 0.0 14.0 0.00 0.00 0.00 97 1017.6
20180618065057 65 229 1.0 12.0 0.00 0.00 0.00 97 1017.6
20180618064057 65 266 1.0 10.0 0.00 0.00 0.00 97 1017.7
20180618063057 64 245 0.0 9.0 0.00 0.00 0.00 97 1017.6
20180618062057 64 217 1.0 10.0 0.00 0.00 0.00 97 1017.6
20180618061057 64 243 1.0 12.0 0.00 0.00 0.00 97 1017.6
20180618060057 64 229 5.0 12.0 0.00 0.00 0.00 97 1017.7
20180618055057 64 238 4.0 10.0 0.00 0.00 0.00 96 1017.6
20180618054057 64 229 1.0 10.0 0.00 0.00 0.00 96 1017.6
20180618053057 64 226 1.0 10.0 0.00 0.00 0.00 96 1017.7
20180618052057 64 252 1.0 10.0 0.00 0.00 0.00 96 1018.1
20180618051057 64 218 5.0 9.0 0.00 0.00 0.00 96 1018.1
20180618050057 64 234 3.0 12.0 0.00 0.00 0.00 96 1018.2
20180618045057 64 210 3.0 12.0 0.00 0.00 0.00 95 1018.2
20180618044057 64 233 5.0 11.0 0.00 0.00 0.00 95 1018.2
20180618043057 64 230 0.0 6.0 0.00 0.00 0.00 95 1018.2
20180618042057 64 220 0.0 8.0 0.00 0.00 0.00 95 1018.1
20180618041057 64 222 0.0 6.0 0.00 0.00 0.00 94 1018.1
20180618040057 64 203 0.0 11.0 0.00 0.00 0.00 94 1018.3
20180618035057 65 226 1.0 9.0 0.00 0.00 0.00 94 1018.3
20180618034057 65 213 1.0 4.0 0.00 0.00 0.00 94 1018.1
20180618033057 65 208 0.0 5.0 0.00 0.00 0.00 93 1017.9
20180618032057 65 225 0.0 7.0 0.00 0.00 0.00 93 1018.1
20180618031057 65 230 4.0 6.0 0.00 0.00 0.00 93 1018.1
20180618030057 65 195 0.0 6.0 0.00 0.00 0.00 93 1018.2
20180618025057 65 200 0.0 3.0 0.00 0.00 0.00 93 1018.4
20180618024057 65 198 0.0 2.0 0.00 0.00 0.00 93 1018.4
20180618023057 65 198 0.0 6.0 0.00 0.00 0.00 93 1018.5
20180618022057 65 206 0.0 4.0 0.00 0.00 0.00 93 1018.5
20180618021057 65 202 0.0 5.0 0.00 0.00 0.00 92 1018.5
20180618020057 65 208 0.0 3.0 0.00 0.00 0.00 92 1018.5
20180618015057 65 202 0.0 2.0 0.00 0.00 0.00 92 1018.6
20180618014057 65 204 0.0 1.0 0.00 0.00 0.00 91 1018.8
20180618013057 66 204 0.0 1.0 0.00 0.00 0.00 91 1018.6
20180618012057 66 214 0.0 2.0 0.00 0.00 0.00 91 1018.5
20180618011057 66 222 0.0 4.0 0.00 0.00 0.00 91 1018.7
20180618010057 66 206 0.0 1.0 0.00 0.00 0.00 90 1018.6
20180618005057 66 214 0.0 7.0 0.00 0.00 0.00 90 1018.6
20180618004057 67 214 0.0 4.0 0.00 0.00 0.00 89 1018.6
20180618003057 67 231 0.0 7.0 0.00 0.00 0.00 89 1018.6
20180618002057 67 220 0.0 6.0 0.00 0.00 0.00 88 1018.6
20180618001057 67 200 0.0 1.0 0.00 0.00 0.00 87 1018.7
20180618000057 67 212 0.0 6.0 0.00 0.00 0.00 87 1018.9
20180617235057 68 229 1.0 5.0 0.00 0.00 0.00 86 1018.8
20180617234057 68 204 0.0 3.0 0.00 0.00 0.00 86 1018.6
20180617233057 68 212 0.0 1.0 0.00 0.00 0.00 86 1018.6
20180617232057 68 189 0.0 6.0 0.00 0.00 0.00 85 1018.5
20180617231057 68 196 0.0 4.0 0.00 0.00 0.00 84 1018.5
20180617230057 69 200 0.0 9.0 0.00 0.00 0.00 83 1018.7
20180617225057 69 238 5.0 13.0 0.00 0.00 0.00 82 1018.8
20180617224057 70 254 0.0 11.0 0.00 0.00 0.00 82 1018.9
20180617223057 70 253 0.0 9.0 0.00 0.00 0.00 82 1018.8
20180617222057 70 198 0.0 9.0 0.00 0.00 0.00 82 1018.4
20180617221057 70 203 0.0 5.0 0.00 0.00 0.00 82 1018.3
20180617220057 70 225 0.0 12.0 0.00 0.00 0.00 82 1018.5
20180617215057 70 258 0.0 12.0 0.00 0.00 0.00 80 1018.4
20180617214057 71 200 0.0 12.0 0.00 0.00 0.00 77 1018.4
20180617213057 71 255 0.0 11.0 0.00 0.00 0.00 77 1018.3
20180617212057 71 202 0.0 4.0 0.00 0.00 0.00 77 1018.3